Location: Austin
(30.3000°N, 97.7500°W)
Time: 23:41:45
(UTC-05:00)

USA 215 - Pass Details

Date: 06 May 2026
Orbit: 1098 x 1109 km, 123.0° (Epoch: 10 January)

Event Time Altitude Azimuth Distance (km) Brightness Sun altitude
Rises 20:22:05 0° 143° (SE) 3,897 5.6 -2.8°
Reaches altitude 10° 20:24:33 10° 145° (SE) 2,942 5.0 -3.3°
Maximum altitude 20:31:02 75° 230° (SW) 1,137 3.5 -4.6°
Drops below altitude 10° 20:37:34 10° 315° (NW) 2,958 6.9 -5.9°
Sets 20:40:04 0° 317° (NW) 3,919 7.6 -6.4°
